Tracking 27420 objects as of 28-May-2023
HD Live streaming from Space Station
objects crossing your sky now

METEOR 2-20 DEB

Track METEOR 2-20 DEB now!
10-day predictions


NORAD ID: 44698
Int'l Code: 1990-086C
Perigee: 910.9 km
Apogee: 939.9 km
Inclination: 82.5 °
Period: 103.4 minutes
Semi major axis: 7296 km
RCS: Unknown
Launch date: September 28, 1990
Source: Commonwealth of Independent States (former USSR) (CIS)
Launch site: PLESETSK MISSILE AND SPACE COMPLEX (PKMTR)

Note: This is SATELLITE DEBRIS
Your satellite tracking list
Your tracking list is empty




NASA's NSSDC Master Catalog

Two Line Element Set (TLE):
1 44698U 90086C   23147.83796890  .00001983  00000-0  15141-2 0  9996
2 44698  82.5149 344.5805 0019901 113.2111 247.1153 13.92968171462272
Source of the keplerian elements: AFSPC